Showing default

SPACEVAN-002, 68424

Orbit data source: Space-Track

SPACEVAN-002, 68424 is a payload satellite owned by Exotrail (FR) in SSO that was launched on Mon, 30 Mar 2026 UTC via an FALCON 9 launch vehicle from the Air Force Western Test Range (AFWTR). Payload-class satellites include a variety of spacecraft equipped with specific instruments for various scientific and technological missions. These include communications satellites like Starlink; space stations such as the ISS; scientific satellites like the Hubble; Earth observation satellites from companies like Planet Labs, Umbra, and HawkEye 360; GPS; miniature CubeSats for education and research; and military/defense satellites.

Loading next visibility...
Identifier
68424, 2026-067J
Orbit
SSO
Country
Flag of FRFR
Related business
Manufacturer
NanoAvionics
Mission
Operational spacecraft
Bus & Motor
MP42, Unknown motor
Mass
125 kg wet, ~120 kg dry
Launch date (UTC)
2026-03-30 (2 months ago)
Launch vehicle
FALCON 9
Launch site
Air Force Western Test Range (AFWTR)
Object type
Payload
Rocket body
Debris
Shape & HBR
Unknown shape, 14.5 m
Radar Cross Section
Large (>1 m²)

Expand to show TLE details & history
Last TLE update: 3 days ago

TLE from 3 days ago
0 SPACEVAN-002
1 68424U 26067J   26154.43492442  .00000558  00000-0  30603-4 0  9999
2 68424  97.4514 113.0747 0004025  87.7494 272.4200 15.18132124  9856
Epoch: 2026-06-03T10:26Z
TLE epoch observation values (Epoch: 2026-06-03T10:26:17.469Z)
Latitude
-0.00013°
Longitude
64.60834°
Altitude
514.457 km
Speed
7.607 km/s
True Right ascension
07h 32m 17s
True Declination
0° 00' 00"
Sunlit
Object was in daylight at epoch
Visualization orbit readout
Latitude
Unknown
Longitude
Unknown
Altitude
Unknown
Speed
Unknown
Apparent Right ascension
Unknown
Apparent Declination
Unknown
Sunlit
N/A
Visualization observer readout
Local Sidereal Time
03:08:21
Azimuth
Unknown
Elevation
Unknown
Doppler factor
Unknown
Orbital elements
Apogee altitude
511.228 km
Perigee altitude
505.684 km
Semi-major axis
6,886.593 km
Eccentricity
0.0004
Inclination
97.4514°
RAAN
113.0747°
Arg. of periapsis
87.7494°
True anomaly
272.37392°
Mean anomaly
272.42°
Eccentric anomaly
272.39696°
Mean motion
3.79784 °/min
Orbital period
94.79 mins
BSTAR
0.000030603
Loading maneuver chart data...
Computing Atmospheric mass density...
Loading historical data...
Loading historical data...
Loading historical data...
Loading historical data...
Loading historical data...
Loading historical data...
Loading historical data...

Documentation

Showing up to 5 results
|